Home > Weather > Xiamen > Past weeks

Flag for China Weather for the Past 2 Weeks in Xiamen, Fujian, China

Now
66 °F

Scattered clouds.


Feels Like: 66 °F
Forecast: 57 / 62 °F
Wind: 3 mph from North

Location: Xiamen Airport

Current Time: Feb 10, 2016 at 1:15:05 PM

Latest Report: Feb 10, 2016 at 12:00 PM


Visibility: N/A

Pressure: 30.09 "Hg

Humidity: 43%

Dew point: 43 °F

Location of XiamenLocation

Historic Weather in Xiamen — Graph

°F

Xiamen Temperature Yesterday

Maximum temperature yesterday: 72 °F (at 3:00 PM)
Minimum temperature yesterday: 45 °F (at 3:00 AM)
Average temperature yesterday: 55 °F

High & Low Weather Summary for the Past Weeks

 TemperatureHumidityPressure
High72 °F (Feb 9, 3:00 PM)100% (Jan 27, 12:00 PM)30.42 "Hg (Jan 27, 12:00 PM)
Low41 °F (Feb 7, 7:00 AM)15% (Feb 9, 3:00 PM)30.07 "Hg (Jan 28, 4:00 PM)
Average54 °F79%30.22 "Hg
* Reported Jan 26 12:00 Noon — Feb 10 12:00 Noon, Xiamen, Weather by CustomWeather, © 2016

Note: Actual official high and low records may vary slightly from our data, if they occured in-between our weather recording intervals... More about our weather records

Advertising

Xiamen Weather History for the Previous 24 Hours

 ConditionsComfort  
Time TempWeatherWind HumidityBarometerVisibility
12:00 PM
Wed, Feb 10
66 °FScattered clouds.3 mph43%30.09 "HgN/A
11:00 AM64 °FPartly sunny.3 mph46%30.12 "HgN/A
10:00 AM63 °FPartly sunny.1 mph45%30.15 "HgN/A
9:00 AM57 °FPassing clouds.3 mph63%30.15 "HgN/A
8:00 AM55 °FSunny.3 mph77%30.15 "Hg10 mi
7:00 AM50 °FSunny.1 mph88%30.12 "Hg10 mi
6:00 AM50 °FClear.1 mph88%30.12 "Hg10 mi
5:00 AM52 °FClear.1 mph82%30.12 "Hg10 mi
4:00 AM54 °FClear.1 mph77%30.09 "Hg10 mi
3:00 AM54 °FClear.3 mph77%30.12 "Hg10 mi
2:00 AM52 °FClear.1 mph88%30.12 "Hg10 mi
1:00 AM50 °FClear.1 mph94%30.15 "Hg10 mi
12:00 AM52 °FClear.3 mph88%30.15 "Hg10 mi
11:00 PM
Tue, Feb 9
52 °FClear.3 mph82%30.18 "Hg10 mi
10:00 PM52 °FClear.No wind77%30.15 "Hg10 mi
9:00 PM54 °FClear.1 mph72%30.15 "Hg10 mi
8:00 PM55 °FClear.3 mph63%30.15 "Hg10 mi
7:00 PM59 °FPassing clouds.6 mph51%30.15 "HgN/A
6:00 PM61 °FPassing clouds.6 mph42%30.15 "HgN/A
5:00 PM64 °FPassing clouds.8 mph34%30.15 "HgN/A
4:00 PM68 °FPassing clouds.8 mph23%30.12 "HgN/A
3:00 PM72 °FSunny.1 mph15%30.12 "Hg10 mi
2:00 PM70 °FPassing clouds.3 mph16%30.15 "HgN/A
1:00 PM68 °FSunny.3 mph20%30.18 "Hg10 mi
Weather by CustomWeather, © 2016

See weather overviewHow to use our weather pages